Weather History for KFLO - October, 2012

Change the Weather History Date:

Sunday, October 28, 2012

  Actual Average Record
Temperature  
Mean Temperature 67 °F 61 °F  
Max Temperature 75 °F 72 °F 86 °F (1974)
Min Temperature 58 °F 49 °F 30 °F (1962)
Degree Days  
Heating Degree Days 0 6  
Month to date heating degree days 57 88  
Since 1 July heating degree days 57 97  
Cooling Degree Days 2 1  
Month to date cooling degree days 98 81  
Year to date cooling degree days 2308 2037  
Growing Degree Days 17 (Base 50)    
Moisture  
Dew Point 50 °F    
Average Humidity 57    
Maximum Humidity 72    
Minimum Humidity 41    
Precipitation  
Precipitation 0.00 in 0.08 in 1.29 in (2003)
Month to date precipitation 1.76 2.83  
Year to date precipitation 35.87 36.98  
Sea Level Pressure  
Sea Level Pressure 29.59 in    
Wind  
Wind Speed 13 mph (NNW)    
Max Wind Speed 22 mph    
Max Gust Speed 30 mph    
Visibility 10 miles    
Events      
T = Trace of Precipitation, MM = Missing Value Source: NWS Daily Summary

Daily Weather History Graph

Daily Weather History Graph

Search for Another Location

Airport or City:

Trip Planner

Search our weather history database for the weather conditions in past years. The results will help you decide how hot, cold, wet, or windy it might be!

Date:

Astronomy

Oct. 28, 2012 Rise Set
Actual Time 7:35 AM EDT 6:29 PM EDT
Civil Twilight 7:09 AM EDT 6:55 PM EDT
Nautical Twilight 6:40 AM EDT 7:24 PM EDT
Astronomical Twilight 6:11 AM EDT 7:53 PM EDT
Moon 5:45 PM EDT (10/28) 6:28 AM EDT (10/28)
Length of Visible Light 11h 45m
Length of Day
10h 53m
Waxing Gibbous, 99% of the Moon is Illuminated
Oct 28
Waxing Gibbous
Oct 29
Full
Nov 6
Last Quarter
Nov 13
New
Nov 20
First Quarter

Hourly Weather History & Observations

Time (EDT) Temp. Dew Point Humidity Pressure Visibility Wind Dir Wind Speed Gust Speed Precip Events Conditions
12:53 AM 64.9 °F 54.0 °F 68% 29.62 in 10.0 mi North 18.4 mph 24.2 mph N/A   Overcast
1:27 AM 64.4 °F 53.6 °F 68% 29.62 in 10.0 mi North 15.0 mph 23.0 mph N/A   Overcast
1:44 AM 64.4 °F 53.6 °F 68% 29.62 in 10.0 mi North 13.8 mph 21.9 mph N/A   Overcast
1:53 AM 64.0 °F 53.1 °F 67% 29.61 in 10.0 mi North 18.4 mph 23.0 mph N/A   Overcast
2:53 AM 64.0 °F 53.1 °F 67% 29.62 in 10.0 mi North 13.8 mph 23.0 mph N/A   Overcast
3:53 AM 63.0 °F 53.1 °F 70% 29.60 in 10.0 mi North 13.8 mph 20.7 mph N/A   Mostly Cloudy
4:53 AM 63.0 °F 52.0 °F 67% 29.59 in 10.0 mi North 19.6 mph 24.2 mph N/A   Clear
5:53 AM 62.1 °F 51.1 °F 67% 29.58 in 10.0 mi North 16.1 mph - N/A   Clear
6:53 AM 62.1 °F 50.0 °F 65% 29.58 in 10.0 mi North 12.7 mph - N/A   Clear
7:53 AM 61.0 °F 50.0 °F 67% 29.60 in 10.0 mi North 11.5 mph - N/A   Clear
8:53 AM 62.1 °F 48.9 °F 62% 29.61 in 10.0 mi North 12.7 mph 24.2 mph N/A   Clear
9:53 AM 63.0 °F 50.0 °F 63% 29.60 in 10.0 mi NNW 17.3 mph - N/A   Clear
10:53 AM 64.9 °F 50.0 °F 58% 29.61 in 10.0 mi North 13.8 mph 25.3 mph N/A   Clear
11:53 AM 66.9 °F 50.0 °F 54% 29.60 in 10.0 mi NNW 16.1 mph 23.0 mph N/A   Partly Cloudy
12:53 PM 69.1 °F 50.0 °F 51% 29.58 in 10.0 mi North 9.2 mph - N/A   Clear
1:53 PM 70.0 °F 50.0 °F 49% 29.57 in 10.0 mi NNW 13.8 mph 20.7 mph N/A   Clear
2:53 PM 72.0 °F 50.0 °F 46% 29.55 in 10.0 mi NW 12.7 mph 20.7 mph N/A   Clear
3:53 PM 73.9 °F 48.9 °F 41% 29.55 in 10.0 mi North 13.8 mph 24.2 mph N/A   Mostly Cloudy
4:53 PM 72.0 °F 48.9 °F 44% 29.56 in 10.0 mi North 11.5 mph - N/A   Partly Cloudy
5:53 PM 70.0 °F 50.0 °F 49% 29.57 in 10.0 mi North 10.4 mph - N/A   Overcast
6:53 PM 66.0 °F 48.9 °F 54% 29.57 in 10.0 mi NNW 5.8 mph - N/A   Mostly Cloudy
7:53 PM 64.9 °F 50.0 °F 58% 29.58 in 10.0 mi NNW 5.8 mph - N/A   Overcast
8:53 PM 62.1 °F 50.0 °F 65% 29.58 in 10.0 mi NNW 5.8 mph - N/A   Clear
9:53 PM 63.0 °F 50.0 °F 63% 29.59 in 10.0 mi NW 6.9 mph - N/A   Mostly Cloudy
10:53 PM 62.1 °F 48.0 °F 60% 29.59 in 10.0 mi NNW 17.3 mph 24.2 mph N/A   Clear
11:53 PM 60.1 °F 44.1 °F 55% 29.60 in 10.0 mi NNW 12.7 mph 19.6 mph N/A   Clear